Date String (YYYY-MM-DD hh:mm:ss) UTC,Instrument flags,Ambient pressure (hPa),Sample flow (lpm),Bypass flow (lpm),Sample temperature (°C),Ambient temperature (°C),ASC tube jacket temperature (°C),LED temperature (°C),Box temperature (°C),Sample RH (%),Span deviation,Mass concentration (μg/m³),Mass concentration (μg/m³),Mass concentration (μg/m³)
DateTimeUTC,F1_M11,P_M11,Q1_M11,Q2_M11,T1_M11,T2_M11,T3_M11,T4_M11,T5_M11,U1_M11,ZSPAN_M11,X0_M11,X2_M11,X1_M11
2022-05-15 19:00:00,,0830.5,5.00,0.00,29.5,28.4,00.0,38.3,31.3,16.9,0000.0,0015.74,0004.38,0002.63
2022-05-15 19:01:00,,0830.5,5.00,0.00,29.5,28.4,00.0,38.4,31.3,17.0,0000.0,0014.99,0004.35,0002.61
2022-05-15 19:02:00,,0830.6,5.01,0.00,29.5,28.5,00.0,38.4,31.3,16.8,0000.0,0014.51,0004.32,0002.60
2022-05-15 19:03:00,,0830.5,5.00,0.00,29.5,28.5,00.0,38.4,31.4,16.7,0000.0,0015.03,0004.29,0002.60
2022-05-15 19:04:00,,0830.5,5.00,0.00,29.6,28.6,00.0,38.4,31.4,16.6,0000.0,0015.90,0004.28,0002.61
2022-05-15 19:05:00,,0830.5,5.00,0.00,29.6,28.6,00.0,38.4,31.4,16.8,0000.0,0015.72,0004.33,0002.64
2022-05-15 19:06:00,,0830.4,5.00,0.00,29.6,28.6,00.0,38.4,31.5,16.8,0000.0,0016.04,0004.34,0002.64
2022-05-15 19:07:00,,0830.5,5.00,0.00,29.6,28.7,00.0,38.5,31.5,16.9,0000.0,0015.72,0004.29,0002.65
2022-05-15 19:08:00,,0830.4,4.99,0.00,29.7,28.5,00.0,38.5,31.5,17.0,0000.0,0015.66,0004.29,0002.67
2022-05-15 19:09:00,,0830.4,5.01,0.00,29.6,26.7,00.0,38.5,31.1,17.2,0000.0,0015.21,0004.31,0002.67
2022-05-15 19:10:00,,0830.4,4.99,0.00,29.5,26.1,00.0,38.4,31.1,16.9,0000.0,0015.24,0004.26,0002.68
2022-05-15 19:11:00,,0830.3,5.01,0.00,29.5,26.4,00.0,38.4,31.1,16.8,0000.0,0015.62,0004.27,0002.69
2022-05-15 19:12:00,,0830.4,5.00,0.00,29.5,26.8,00.0,38.4,31.1,16.6,0000.0,0015.53,0004.26,0002.70
2022-05-15 19:13:00,,0830.4,5.00,0.00,29.4,27.1,00.0,38.4,31.2,16.9,0000.0,0015.05,0004.28,0002.70
2022-05-15 19:14:00,,0830.4,5.01,0.00,29.4,27.4,00.0,38.4,31.2,16.6,0000.0,0014.87,0004.35,0002.71
2022-05-15 19:15:00,,0830.3,5.00,0.00,29.4,27.6,00.0,38.4,31.2,16.7,0000.0,0014.33,0004.39,0002.73
2022-05-15 19:16:00,,0830.4,5.00,0.00,29.4,27.8,00.0,38.4,31.2,16.6,0000.0,0014.67,0004.37,0002.74
2022-05-15 19:17:00,,0830.4,5.01,0.00,29.4,28.0,00.0,38.3,31.2,16.5,0000.0,0014.25,0004.33,0002.78
2022-05-15 19:18:00,,0830.3,5.01,0.00,29.5,28.2,00.0,38.3,31.2,16.5,0000.0,0014.25,0004.38,0002.81
2022-05-15 19:19:00,,0830.3,4.99,0.00,29.5,28.3,00.0,38.4,31.3,16.9,0000.0,0013.88,0004.39,0002.84
2022-05-15 19:20:00,,0830.3,5.00,0.00,29.5,28.4,00.0,38.4,31.3,16.8,0000.0,0013.67,0004.37,0002.85
2022-05-15 19:21:00,,0830.3,5.00,0.00,29.6,28.5,00.0,38.4,31.4,16.6,0000.0,0013.45,0004.40,0002.84
2022-05-15 19:22:00,,0830.2,5.01,0.00,29.6,28.6,00.0,38.4,31.4,16.3,0000.0,0013.74,0004.41,0002.85
2022-05-15 19:23:00,,0830.2,5.00,0.00,29.6,28.7,00.0,38.4,31.5,16.4,0000.0,0014.72,0004.38,0002.84
2022-05-15 19:24:00,,0830.3,5.00,0.00,29.7,28.7,00.0,38.4,31.5,16.6,0000.0,0014.89,0004.32,0002.86
2022-05-15 19:25:00,,0830.3,5.01,0.00,29.7,28.8,00.0,38.5,31.6,16.7,0000.0,0015.29,0004.25,0002.84
2022-05-15 19:26:00,,0830.3,5.00,0.00,29.7,28.8,00.0,38.5,31.6,16.8,0000.0,0014.67,0004.17,0002.80
2022-05-15 19:27:00,,0830.2,5.00,0.00,29.8,28.7,00.0,38.5,31.6,16.9,0000.0,0014.03,0004.12,0002.79
2022-05-15 19:28:00,,0830.2,5.00,0.00,29.7,27.0,00.0,38.5,31.2,16.6,0000.0,0014.22,0004.05,0002.75
2022-05-15 19:29:00,,0830.2,5.01,0.00,29.6,26.0,00.0,38.5,31.0,16.8,0000.0,0014.46,0004.02,0002.72
2022-05-15 19:30:00,,0830.1,5.00,0.00,29.5,26.3,00.0,38.5,31.1,17.1,0000.0,0014.32,0004.02,0002.70
2022-05-15 19:31:00,,0830.1,5.00,0.00,29.5,26.7,00.0,38.4,31.1,16.7,0000.0,0014.26,0004.00,0002.71
2022-05-15 19:32:00,,0830.1,5.00,0.00,29.5,27.1,00.0,38.4,31.2,16.9,0000.0,0014.58,0004.01,0002.73
2022-05-15 19:33:00,,0830.2,5.02,0.00,29.5,27.4,00.0,38.4,31.2,16.9,0000.0,0014.57,0004.01,0002.71
2022-05-15 19:34:00,,0830.1,5.00,0.00,29.5,27.6,00.0,38.4,31.2,16.6,0000.0,0014.38,0004.08,0002.71
2022-05-15 19:35:00,,0830.0,5.00,0.00,29.5,27.8,00.0,38.4,31.3,16.9,0000.0,0015.10,0004.10,0002.71
2022-05-15 19:36:00,,0830.0,5.00,0.00,29.5,28.0,00.0,38.4,31.3,17.3,0000.0,0014.83,0004.14,0002.70
2022-05-15 19:37:00,,0830.0,4.99,0.00,29.5,28.1,00.0,38.4,31.3,17.1,0000.0,0015.31,0004.20,0002.72
2022-05-15 19:38:00,,0830.0,4.99,0.00,29.6,28.2,00.0,38.4,31.4,16.7,0000.0,0015.87,0004.23,0002.72
2022-05-15 19:39:00,,0830.0,5.01,0.00,29.6,28.3,00.0,38.4,31.4,16.8,0000.0,0015.76,0004.29,0002.73
2022-05-15 19:40:00,,0830.0,4.99,0.00,29.6,28.4,00.0,38.4,31.4,16.8,0000.0,0015.54,0004.28,0002.72
2022-05-15 19:41:00,,0830.1,5.00,0.00,29.6,28.5,00.0,38.5,31.4,16.4,0000.0,0015.83,0004.33,0002.72
2022-05-15 19:42:00,,0830.0,5.00,0.00,29.6,28.6,00.0,38.5,31.4,16.3,0000.0,0017.37,0004.39,0002.72
2022-05-15 19:43:00,,0830.0,5.01,0.00,29.7,28.7,00.0,38.5,31.5,16.4,0000.0,0018.10,0004.36,0002.73
2022-05-15 19:44:00,,0830.0,5.01,0.00,29.7,28.7,00.0,38.5,31.5,16.9,0000.0,0017.77,0004.30,0002.73
2022-05-15 19:45:00,,0829.9,4.99,0.00,29.7,28.2,00.0,38.5,31.4,16.5,0000.0,0018.08,0004.25,0002.72
2022-05-15 19:46:00,,0829.9,5.01,0.00,29.6,26.2,00.0,38.5,31.0,16.5,0000.0,0017.34,0004.24,0002.74
2022-05-15 19:47:00,,0829.8,4.99,0.00,29.5,26.0,00.0,38.5,31.0,17.0,0000.0,0017.89,0004.26,0002.74
2022-05-15 19:48:00,,0829.8,5.01,0.00,29.5,26.4,00.0,38.4,31.1,17.0,0000.0,0017.99,0004.23,0002.75
2022-05-15 19:49:00,,0829.8,4.99,0.00,29.4,26.8,00.0,38.4,31.1,17.3,0000.0,0018.04,0004.17,0002.73
2022-05-15 19:50:00,,0829.8,5.00,0.00,29.4,27.1,00.0,38.4,31.1,16.7,0000.0,0018.36,0004.15,0002.72
2022-05-15 19:51:00,,0829.8,5.00,0.00,29.4,27.5,00.0,38.4,31.2,16.9,0000.0,0019.37,0004.14,0002.73
2022-05-15 19:52:00,,0829.8,5.00,0.00,29.5,27.7,00.0,38.4,31.2,17.1,0000.0,0019.90,0004.05,0002.73
2022-05-15 19:53:00,,0829.8,5.00,0.00,29.5,27.9,00.0,38.4,31.3,17.3,0000.0,0018.31,0003.98,0002.71
2022-05-15 19:54:00,,0829.8,4.99,0.00,29.5,28.1,00.0,38.4,31.3,17.2,0000.0,0017.02,0003.95,0002.69
2022-05-15 19:55:00,,0829.8,5.00,0.00,29.5,28.3,00.0,38.4,31.4,16.8,0000.0,0016.40,0004.00,0002.70
2022-05-15 19:56:00,,0829.8,5.00,0.00,29.6,28.4,00.0,38.4,31.4,16.8,0000.0,0016.13,0003.98,0002.70
2022-05-15 19:57:00,,0829.7,5.01,0.00,29.6,28.5,00.0,38.4,31.4,16.3,0000.0,0016.46,0003.96,0002.71
2022-05-15 19:58:00,,0829.8,5.01,0.00,29.6,28.5,00.0,38.5,31.5,16.5,0000.0,0016.68,0003.98,0002.74
2022-05-15 19:59:00,,0829.7,5.01,0.00,29.7,28.6,00.0,38.5,31.5,16.6,0000.0,0016.43,0004.04,0002.74
